Regional Weather Roundup
Issued by NWS Upton, NY

Current Version | Previous Version | Text Only | Print | Product List | Glossary On
Versions: 1 2 3 4 5 6 7 8 9 10 11 12 13 14 15 16 17 18 19 20 21 22 23 24 25 26 27 28 29 30 31 32 33 34 35 36 37 38 39 40 41 42 43 44 45 46 47 48 49 50
000
ASUS41 KOKX 051408
RWROKX

REGIONAL WEATHER ROUNDUP
NATIONAL WEATHER SERVICE NEW YORK NY
1000 AM EDT TUE MAY 05 2015

NOTE: "FAIR" INDICATES FEW OR NO CLOUDS BELOW 12,000 FEET WITH NO
SIGNIFICANT WEATHER AND/OR OBSTRUCTIONS TO VISIBILITY.

NYZ071-072-176-178-NJZ106-104-051500-
NEW YORK CITY METRO AREA


CITY           SKY/WX    TMP DP  RH WIND       PRES   REMARKS
CENTRAL PARK   CLOUDY    73  51  46 VRB3      30.23S
LAGUARDIA APRT PTSUNNY   68  51  54 NW9       30.20R
KENNEDY INTL   PTSUNNY   73  52  47 SW6       30.21S
NEWARK/LIBERTY PTSUNNY   78  53  41 N8        30.20S
BRNX BOT. GARD   N/A     72  52  49 NW8       30.22S
TETERBORO      PTSUNNY   75  52  44 NW6       30.19S
$$

NYZ177-179-078>081-051500-
LONG ISLAND NEW YORK

CITY           SKY/WX    TMP DP  RH WIND       PRES   REMARKS
FARMINGDALE    MOSUNNY   73  54  51 VRB3      30.20S
ISLIP          PTSUNNY   75  50  41 VRB3      30.18F
SHIRLEY        MOSUNNY   75  50  41 N8        30.20F
WESTHAMPTON    MOSUNNY   70  53  54 CALM      30.21F
MONTAUK POINT    N/A     67  50  54 W5        30.21S
$$

NYZ052-065-067-051500-
HUDSON VALLEY

CITY           SKY/WX    TMP DP  RH WIND       PRES   REMARKS
WHITE PLAINS   PTSUNNY   72  52  49 VRB5      30.21R
NEWBURGH       PTSUNNY   72  57  60 VRB6      30.23F
MONTGOMERY     MOSUNNY   71  55  56 SE3       30.21F
POUGHKEEPSIE   CLOUDY    72  53  51 N12       30.22R
ALBANY         PTSUNNY   70  53  54 N7        30.23S
$$

NJZ001-105-106-008-010-013-015-019>022-104-051500-
NEW JERSEY

CITY           SKY/WX    TMP DP  RH WIND       PRES   REMARKS
NEWARK/LIBERTY PTSUNNY   78  53  41 N8        30.20S
TETERBORO      PTSUNNY   75  52  44 NW6       30.19S
CALDWELL       PTSUNNY   73  55  53 CALM      30.22R
MORRISTOWN     PTSUNNY   73  55  53 N8G17     30.22R
SOMERVILLE     PTSUNNY   74  53  48 NW3       30.20S
SUSSEX         PTSUNNY   73  56  54 CALM      30.24R
ANDOVER          N/A     71  55  56 NE7       30.23S
TRENTON        PTSUNNY   72  54  53 W5        30.23R
MILLVILLE      SUNNY     74  57  55 W6        30.24S
ATLANTIC CITY  SUNNY     76  55  48 W8        30.23F
WRIGHTSTOWN    FAIR      76  55  48 W5        30.20S
TOMS RIVER     SUNNY     75  52  43 NW9       30.22S
BELMAR         SUNNY     75  54  46 CALM      30.21S
$$

PAZ047>061-062-071-051500-
EASTERN PENNSYLVANIA

CITY           SKY/WX    TMP DP  RH WIND       PRES   REMARKS
PHILADELPHIA   PTSUNNY   72  55  55 SW6       30.24S
ALLENTOWN      MOSUNNY   71  56  58 W3        30.24S
SCRANTON       CLOUDY    69  55  60 N6        30.26S
$$

CTZ002-004>006-009-010-012-RIZ004-006-007-MAZ004-011-015-051500-
SOUTHERN NEW ENGLAND
 IN CT

CITY           SKY/WX    TMP DP  RH WIND       PRES   REMARKS
BRADLEY INTL   CLOUDY    71  53  52 N8        30.20R
HARTFORD       PTSUNNY   70  53  54 VRB7      30.20S
DANBURY        PTSUNNY   72  53  51 N9        30.23R
WTRBRY/OXFORD  MOSUNNY   68  54  60 N12G17    30.24R
BRIDGEPORT     PTSUNNY   65  50  58 SW6       30.20R
MERIDEN        CLOUDY    73  52  47 N8        30.21R
NEW HAVEN      PTSUNNY   64  51  62 S5        30.20R
CHESTER        FAIR      72  52  49 N9        30.21S
GROTON         PTSUNNY   64  50  60 SW8       30.19S
WILLIMANTIC    PTSUNNY   72  52  49 VRB7      30.20S

 IN RI

CITY           SKY/WX    TMP DP  RH WIND       PRES   REMARKS
PROVIDENCE     CLOUDY    71  51  49 N10       30.19S
BLOCK ISLAND   MOSUNNY   63  48  59 SW10      30.20F
WESTERLY       PTSUNNY   65  49  56 SW6       30.20S

 IN MA

CITY           SKY/WX    TMP DP  RH WIND       PRES   REMARKS
BOSTON         LGT RAIN  64  56  75 S3        30.19S
WORCESTER      CLOUDY    61  56  83 W5        30.21R
WESTFIELD      CLOUDY    68  53  58 CALM      30.21R
PROVINCETOWN   CLOUDY    55  48  76 W5        30.20R
NANTUCKET      MOSUNNY   59  49  69 W18G24    30.21R
$$

ANZ330-335-338-340-345-350-353-355-051500-
COASTAL MARINE OBSERVATIONS


STATION/POSITION TIME  SKY/WX   TEMP    WIND        PRES    VSBY  WAVE
                                AIR SEA DIR/SP/G                  HT/PER
                 (UTC)          (F)     (DEG/KT/KT) (MB)    (MI)  (FT/S)
NY HARB ENTRANCE 1350            54 51  230/  6/  6 1022.5          3/ 5
4S FIRE IS       1303               49                N/A           4/ 5
20S FIRE ISLAND  1350            51 48  220/ 10/ 12 1022.8          4/ 5
GREAT SOUTH BAY  1300            58 59  260/  6/  8   N/A
23SW MTP         1350            49 47  250/  6/  6 1022.9          4/ 5
HUDSON CANYON    NOT AVBL
KINGS POINT      1300            70      CALM  /  2 1021.9
EASTERN LI SOUND 1300            53     230/  4/  6   N/A
ROBBINS REEF     1300            68     280/  5/  6 1021.7
$$


>>>>>>>>>>>>>>>>>>>>>>>>>>>> KEY <<<<<<<<<<<<<<<<<<<<<<<<<<<
>                                                          <
>     SKY/WX - SKY CONDITION/PRESENT WEATHER               <
>     TMP    - TEMPERATURE IN FAHRENHEIT                   <
>     DP     - DEWPOINT IN FAHRENHEIT                      <
>     RH     - RELATIVE HUMIDITY IN PERCENT                <
>     WIND   - DIRECTION AND SPEED IN MPH                  <
>     PRES   - MEAN SEA LEVEL PRESSURE IN INCHES OF HG     <
>     WCI    - WIND CHILL INDEX                            <
>     VSB    - VISIBILITY IN MILES                         <
>     HX     - HEAT INDEX                                  <
>     TC     - TEMPERATURE IN CELSIUS                      <
>     VRB    - VARIABLE WIND DIRECTION                     <
>                                                          <
>>>>>>>>>>>>>>>>>>>>>>>>>>>> KEY <<<<<<<<<<<<<<<<<<<<<<<<<<<




USA.gov is the U.S. government's official web portal to all federal, state and local government web resources and services.